Location: Poprad
(49.0500°N, 20.3000°E)
Time: 19:30:08
(UTC+02:00)

ITUPSAT 1 - Pass Details

Date: 01 May 2024
Orbit: 694 x 707 km, 98.5° (Epoch: 20 May)

Event Time Altitude Azimuth Distance (km) Brightness Sun altitude
Rises 22:52:51 0° 14° (NNE) 3,085 ? -21.6°
Reaches altitude 10° 22:55:07 10° 15° (NNE) 2,162 ? -21.8°
Maximum altitude 22:59:51 88° 102° (ESE) 702 ? -22.1°
Enters shadow 23:00:57 54° 192° (SSW) 846 ? -22.2°
